Location: Newark
(13.6797°N, 8.5297°E)
Time: 18:05:29
(UTC+00:00)

Altair - Pass Details

Date: 04 February 2020
Orbit: 1502 x 1682 km, 47.2° (Epoch: 22 February)

Event Time Altitude Azimuth Distance (km) Brightness Sun altitude
Rises 14:05:39 0° 308° (NW) 4,915 10.3 43.1°
Reaches altitude 10° 14:08:58 10° 303° (WNW) 3,913 9.9 42.5°
Maximum altitude 14:18:26 48° 232° (SW) 2,029 10.9 40.7°
Drops below altitude 10° 14:27:37 10° 161° (SSE) 3,787 9.8 38.9°
Sets 14:30:49 0° 155° (SSE) 4,746 10.2 38.2°
